Tracking 22993 objects as of 9-May-2021
HD Live streaming from Space Station
objects crossing your sky now

COSMOS 397 DEB

Track COSMOS 397 DEB now!
10-day predictions


NORAD ID: 5763
Int'l Code: 1971-015CF
Perigee: 856.4 km
Apogee: 1,426.3 km
Inclination: 66.9 °
Period: 108.0 minutes
Semi major axis: 7512 km
RCS: 0.0229 m2 (small)
Launch date: February 25, 1971
Source: Commonwealth of Independent States (former USSR) (CIS)
Launch site: TYURATAM MISSILE AND SPACE COMPLEX (TTMTR)

Note: This is SATELLITE DEBRIS
aabbcc
Your satellite tracking list
Your tracking list is empty




NASA's NSSDC Master Catalog

Two Line Element Set (TLE):
1 05763U 71015CF  21129.34857649  .00000472  00000-0  72775-3 0  9990
2 05763  66.9013  96.7628 0379354  35.2392 327.3115 13.33337992403632
Source of the keplerian elements: AFSPC